| time (UTC) | temp F | wind direction | speed MPH | gust MPH | rain 1hr in | rain 24hr in | rain mn in | humidity % | barometer mb |
| 20260903171513 | 60 | 96 | 0.0 | 3.0 | 0.00 | 0.17 | 0.01 | 78 | 1009.6 |
| 20260903170022 | 59 | 72 | 0.0 | 3.0 | 0.00 | 0.17 | 0.01 | 80 | 1009.6 |
| 20260903164526 | 58 | 130 | 0.0 | 3.0 | 0.00 | 0.17 | 0.01 | 83 | 1009.6 |
| 20260903163025 | 56 | 195 | 0.0 | 1.0 | 0.00 | 0.17 | 0.01 | 87 | 1009.7 |
| 20260903161519 | 55 | 82 | 0.0 | 1.0 | 0.00 | 0.17 | 0.01 | 89 | 1009.7 |
| 20260903160015 | 55 | 81 | 0.0 | 1.0 | 0.00 | 0.17 | 0.01 | 90 | 1009.7 |
| 20260903154519 | 54 | 142 | 0.0 | 0.0 | 0.00 | 0.17 | 0.01 | 90 | 1009.6 |
| 20260903153028 | 53 | 142 | 0.0 | 0.0 | 0.00 | 0.17 | 0.01 | 91 | 1009.6 |
| 20260903151534 | 53 | 188 | 0.0 | 1.0 | 0.00 | 0.17 | 0.01 | 91 | 1009.6 |
| 20260903150017 | 53 | 178 | 0.0 | 0.0 | 0.00 | 0.17 | 0.01 | 91 | 1009.6 |
| 20260903144516 | 53 | 175 | 0.0 | 0.0 | 0.00 | 0.17 | 0.01 | 91 | 1009.6 |
| 20260903143023 | 52 | 279 | 0.0 | 2.0 | 0.00 | 0.17 | 0.01 | 92 | 1009.5 |
| 20260903141529 | 52 | 111 | 0.0 | 0.0 | 0.00 | 0.17 | 0.01 | 92 | 1009.4 |
| 20260903140032 | 52 | 111 | 0.0 | 0.0 | 0.00 | 0.17 | 0.01 | 92 | 1009.4 |
| 20260903134514 | 52 | 111 | 0.0 | 0.0 | 0.00 | 0.17 | 0.01 | 92 | 1009.3 |
| 20260903133019 | 52 | 111 | 0.0 | 1.0 | 0.00 | 0.17 | 0.01 | 92 | 1009.4 |
| 20260903131523 | 52 | 256 | 0.0 | 2.0 | 0.00 | 0.17 | 0.01 | 93 | 1009.2 |
| 20260903130029 | 52 | 35 | 0.0 | 0.0 | 0.00 | 0.17 | 0.01 | 93 | 1008.9 |
| 20260903124531 | 52 | 35 | 0.0 | 0.0 | 0.00 | 0.17 | 0.01 | 93 | 1008.8 |
| 20260903123017 | 52 | 35 | 0.0 | 0.0 | 0.00 | 0.17 | 0.01 | 93 | 1008.8 |
| 20260903121522 | 52 | 35 | 0.0 | 0.0 | 0.00 | 0.17 | 0.01 | 93 | 1008.8 |
| 20260903120028 | 52 | 35 | 0.0 | 0.0 | 0.00 | 0.17 | 0.01 | 93 | 1008.8 |
| 20260903114529 | 52 | 36 | 0.0 | 0.0 | 0.00 | 0.17 | 0.01 | 93 | 1008.8 |
| 20260903113033 | 52 | 36 | 0.0 | 0.0 | 0.01 | 0.17 | 0.01 | 93 | 1008.7 |
| 20260903111530 | 52 | 36 | 0.0 | 0.0 | 0.01 | 0.17 | 0.01 | 93 | 1008.6 |
| 20260903110026 | 52 | 36 | 0.0 | 0.0 | 0.01 | 0.17 | 0.01 | 93 | 1008.5 |
| 20260903104527 | 52 | 36 | 0.0 | 1.0 | 0.01 | 0.17 | 0.01 | 93 | 1008.7 |
| 20260903103032 | 52 | 195 | 0.0 | 1.0 | 0.00 | 0.16 | 0.00 | 93 | 1008.7 |
| 20260903101516 | 52 | 186 | 0.0 | 0.0 | 0.00 | 0.16 | 0.00 | 93 | 1008.7 |
| 20260903100020 | 52 | 186 | 0.0 | 0.0 | 0.00 | 0.16 | 0.00 | 93 | 1008.6 |
| 20260903094524 | 52 | 186 | 0.0 | 0.0 | 0.00 | 0.16 | 0.00 | 93 | 1008.5 |
| 20260903093038 | 52 | 186 | 0.0 | 0.0 | 0.00 | 0.16 | 0.00 | 93 | 1008.5 |
| 20260903091534 | 52 | 186 | 0.0 | 0.0 | 0.00 | 0.16 | 0.00 | 93 | 1008.4 |
| 20260903090016 | 52 | 186 | 0.0 | 0.0 | 0.00 | 0.16 | 0.00 | 93 | 1008.5 |
| 20260903084526 | 51 | 186 | 0.0 | 0.0 | 0.00 | 0.16 | 0.00 | 93 | 1008.3 |
| 20260903083029 | 51 | 186 | 0.0 | 0.0 | 0.00 | 0.16 | 0.00 | 93 | 1008.3 |
| 20260903081531 | 51 | 186 | 0.0 | 0.0 | 0.00 | 0.16 | 0.00 | 93 | 1008.2 |
| 20260903080034 | 51 | 186 | 0.0 | 0.0 | 0.00 | 0.16 | 0.00 | 93 | 1008.3 |
| 20260903074520 | 51 | 186 | 0.0 | 0.0 | 0.00 | 0.16 | 0.00 | 93 | 1008.4 |
| 20260903073039 | 51 | 186 | 0.0 | 1.0 | 0.00 | 0.16 | 0.00 | 93 | 1008.2 |
| 20260903071527 | 51 | 198 | 0.0 | 0.0 | 0.00 | 0.16 | 0.00 | 93 | 1008.0 |
| 20260903070041 | 51 | 198 | 0.0 | 0.0 | 0.00 | 0.16 | 0.00 | 93 | 1008.0 |
| 20260903064514 | 51 | 198 | 0.0 | 0.0 | 0.00 | 0.16 | 0.16 | 92 | 1008.0 |
| 20260903063029 | 52 | 198 | 0.0 | 0.0 | 0.00 | 0.16 | 0.16 | 93 | 1007.9 |
| 20260903061502 | 52 | 198 | 0.0 | 0.0 | 0.00 | 0.16 | 0.16 | 92 | 1007.9 |
| 20260903060006 | 52 | 198 | 0.0 | 0.0 | 0.00 | 0.16 | 0.16 | 92 | 1007.9 |
| 20260903054514 | 52 | 198 | 0.0 | 0.0 | 0.00 | 0.16 | 0.16 | 92 | 1007.9 |
| 20260903053016 | 53 | 198 | 0.0 | 0.0 | 0.00 | 0.16 | 0.16 | 92 | 1008.0 |
| 20260903051526 | 53 | 198 | 0.0 | 0.0 | 0.00 | 0.16 | 0.16 | 92 | 1007.9 |
| 20260903050005 | 54 | 198 | 0.0 | 0.0 | 0.00 | 0.16 | 0.16 | 92 | 1007.9 |
| 20260903044510 | 54 | 198 | 0.0 | 1.0 | 0.00 | 0.16 | 0.16 | 92 | 1007.8 |
| 20260903043016 | 54 | 202 | 0.0 | 0.0 | 0.00 | 0.16 | 0.16 | 92 | 1007.8 |
| 20260903041526 | 55 | 202 | 0.0 | 0.0 | 0.00 | 0.16 | 0.16 | 92 | 1007.6 |
| 20260903040029 | 55 | 202 | 0.0 | 0.0 | 0.00 | 0.16 | 0.16 | 91 | 1007.7 |
| 20260903034506 | 55 | 202 | 0.0 | 0.0 | 0.00 | 0.16 | 0.16 | 91 | 1007.5 |
| 20260903033011 | 56 | 202 | 0.0 | 1.0 | 0.00 | 0.16 | 0.16 | 91 | 1007.4 |
| 20260903031514 | 56 | 156 | 0.0 | 2.0 | 0.00 | 0.16 | 0.16 | 91 | 1007.1 |
| 20260903030037 | 56 | 267 | 0.0 | 1.0 | 0.00 | 0.16 | 0.16 | 90 | 1006.9 |
| 20260903024526 | 57 | 267 | 0.0 | 2.0 | 0.00 | 0.16 | 0.16 | 90 | 1006.8 |
| 20260903023006 | 57 | 245 | 0.0 | 7.0 | 0.00 | 0.16 | 0.16 | 89 | 1006.5 |
| 20260903021512 | 57 | 217 | 0.0 | 2.0 | 0.00 | 0.16 | 0.16 | 90 | 1006.1 |
| 20260903020024 | 57 | 281 | 0.0 | 2.0 | 0.00 | 0.16 | 0.16 | 90 | 1006.1 |
| 20260903014527 | 57 | 141 | 0.0 | 7.0 | 0.00 | 0.16 | 0.16 | 90 | 1006.0 |
| 20260903013041 | 58 | 260 | 1.0 | 14.0 | 0.00 | 0.16 | 0.16 | 90 | 1005.7 |
| 20260903011514 | 58 | 143 | 1.0 | 8.0 | 0.00 | 0.16 | 0.16 | 91 | 1005.4 |
| 20260903010030 | 59 | 250 | 1.0 | 3.0 | 0.00 | 0.16 | 0.16 | 92 | 1005.1 |
| 20260903004523 | 59 | 178 | 0.0 | 0.0 | 0.03 | 0.16 | 0.16 | 92 | 1004.6 |
| 20260903003033 | 59 | 178 | 0.0 | 0.0 | 0.06 | 0.16 | 0.16 | 92 | 1004.7 |
| 20260903001531 | 59 | 178 | 0.0 | 0.0 | 0.09 | 0.16 | 0.16 | 92 | 1004.9 |
| 20260903000014 | 58 | 178 | 0.0 | 1.0 | 0.10 | 0.16 | 0.16 | 91 | 1005.0 |
| 20260902234525 | 59 | 188 | 0.0 | 2.0 | 0.09 | 0.13 | 0.13 | 90 | 1005.5 |
| 20260902233028 | 59 | 152 | 0.0 | 1.0 | 0.07 | 0.10 | 0.10 | 90 | 1005.3 |
| 20260902231531 | 59 | 165 | 0.0 | 0.0 | 0.05 | 0.07 | 0.07 | 89 | 1005.3 |
| 20260902230032 | 59 | 165 | 0.0 | 1.0 | 0.04 | 0.06 | 0.06 | 88 | 1005.3 |
| 20260902224529 | 60 | 190 | 0.0 | 2.0 | 0.03 | 0.04 | 0.04 | 86 | 1005.2 |
| 20260902223019 | 61 | 140 | 1.0 | 5.0 | 0.03 | 0.03 | 0.03 | 85 | 1005.1 |
| 20260902221537 | 61 | 116 | 0.0 | 0.0 | 0.02 | 0.02 | 0.02 | 84 | 1005.0 |
| 20260902220050 | 61 | 116 | 0.0 | 3.0 | 0.02 | 0.02 | 0.02 | 82 | 1004.9 |
| 20260902214532 | 62 | 129 | 0.0 | 2.0 | 0.01 | 0.01 | 0.01 | 80 | 1005.0 |
| 20260902213019 | 64 | 182 | 0.0 | 8.0 | 0.00 | 0.00 | 0.00 | 74 | 1005.1 |
| 20260902211527 | 65 | 196 | 0.0 | 6.0 | 0.00 | 0.00 | 0.00 | 69 | 1005.1 |
| 20260902210027 | 65 | 168 | 0.0 | 8.0 | 0.00 | 0.00 | 0.00 | 68 | 1005.0 |
| 20260902204532 | 65 | 221 | 0.0 | 11.0 | 0.00 | 0.00 | 0.00 | 66 | 1005.0 |
| 20260902203031 | 67 | 148 | 1.0 | 8.0 | 0.00 | 0.00 | 0.00 | 62 | 1005.0 |
| 20260902201539 | 68 | 355 | 0.0 | 2.0 | 0.00 | 0.00 | 0.00 | 63 | 1005.0 |
| 20260902200026 | 68 | 194 | 0.0 | 0.0 | 0.00 | 0.00 | 0.00 | 63 | 1005.0 |
| 20260902194534 | 68 | 149 | 0.0 | 1.0 | 0.00 | 0.00 | 0.00 | 63 | 1005.2 |
| 20260902193041 | 67 | 5 | 0.0 | 2.0 | 0.00 | 0.00 | 0.00 | 64 | 1005.3 |
| 20260902191519 | 67 | 273 | 0.0 | 3.0 | 0.00 | 0.00 | 0.00 | 65 | 1005.5 |
| 20260902190026 | 67 | 258 | 0.0 | 3.0 | 0.00 | 0.00 | 0.00 | 66 | 1005.6 |
| 20260902184528 | 67 | 224 | 0.0 | 2.0 | 0.00 | 0.00 | 0.00 | 66 | 1005.6 |
| 20260902183031 | 67 | 118 | 0.0 | 2.0 | 0.00 | 0.00 | 0.00 | 65 | 1006.0 |
| 20260902181533 | 67 | 275 | 0.0 | 3.0 | 0.00 | 0.00 | 0.00 | 65 | 1006.2 |
| 20260902180028 | 67 | 222 | 0.0 | 3.0 | 0.00 | 0.00 | 0.00 | 67 | 1006.3 |
| 20260902174532 | 66 | 279 | 0.0 | 3.0 | 0.00 | 0.00 | 0.00 | 69 | 1006.4 |
| 20260902173030 | 66 | 308 | 0.0 | 5.0 | 0.00 | 0.00 | 0.00 | 69 | 1006.5 |